Weather History for Lakeville, MN

Change the Weather History Date:

Wednesday, January 15, 2014

  Actual Average Record
Temperature  
Mean Temperature 10 °F -  
Max Temperature 26 °F 20 °F 42 °F (1990)
Min Temperature -5 °F 2 °F -36 °F (1972)
Degree Days  
Heating Degree Days 56    
Moisture  
Dew Point 4 °F    
Average Humidity 81    
Maximum Humidity 93    
Minimum Humidity 67    
Precipitation  
Precipitation 0.00 in - - ()
Sea Level Pressure  
Sea Level Pressure 29.88 in    
Wind  
Wind Speed 9 mph (SW)    
Max Wind Speed 18 mph    
Max Gust Speed 26 mph    
Visibility 8 miles    
Events Snow    
Averages and records for this station are not official NWS values.
T = Trace of Precipitation, MM = Missing Value Source: NWS Daily Summary

Daily Weather History Graph

Daily Weather History Graph

Search for Another Location

Airport:

Trip Planner

Search our weather history database for the weather conditions in past years. The results will help you decide how hot, cold, wet, or windy it might be!

Date:

Astronomy

Jan. 15, 2014 Rise Set
Actual Time 7:46 AM CST 4:58 PM CST
Civil Twilight 7:13 AM CST 5:31 PM CST
Nautical Twilight 6:37 AM CST 6:07 PM CST
Astronomical Twilight 6:02 AM CST 6:42 PM CST
Moon 4:59 PM CST (1/15) 7:00 AM CST (1/15)
Length of Visible Light 10h 17m
Length of Day
9h 12m
Full, 100% of the Moon is Illuminated
Jan 15
Full
Jan 15
Full
Jan 23
Last Quarter
Jan 30
New
Feb 6
First Quarter

Hourly Weather History & Observations

Time (CST) Temp. Windchill Dew Point Humidity Pressure Visibility Wind Dir Wind Speed Gust Speed Precip Events Conditions
12:04 AM 3.2 °F -12.2 °F -0.4 °F 85% 30.10 in 10.0 mi NW 10.4 mph - N/A   Scattered Clouds
12:24 AM 5.0 °F -10.8 °F -0.4 °F 78% 30.11 in 10.0 mi NW 11.5 mph - N/A   Clear
12:44 AM 3.2 °F -14.6 °F -0.4 °F 85% 30.12 in 10.0 mi NW 13.8 mph - N/A   Clear
1:04 AM 3.2 °F -12.2 °F -0.4 °F 85% 30.12 in 10.0 mi NW 10.4 mph - N/A   Clear
1:24 AM 3.2 °F -11.3 °F -0.4 °F 85% 30.12 in 10.0 mi NW 9.2 mph - N/A   Clear
1:44 AM 3.2 °F -13.9 °F -0.4 °F 85% 30.11 in 10.0 mi NW 12.7 mph - N/A   Clear
2:04 AM 1.4 °F -15.3 °F -2.2 °F 85% 30.11 in 10.0 mi NW 11.5 mph - N/A   Clear
2:24 AM 1.4 °F -13.5 °F -2.2 °F 85% 30.11 in 10.0 mi NW 9.2 mph - N/A   Clear
2:44 AM 1.4 °F -14.5 °F -2.2 °F 85% 30.12 in 10.0 mi NW 10.4 mph - N/A   Clear
3:04 AM -0.4 °F -15.7 °F -4.0 °F 85% 30.12 in 10.0 mi NW 9.2 mph - N/A   Clear
3:24 AM -0.4 °F -14.7 °F -4.0 °F 85% 30.13 in 10.0 mi NW 8.1 mph - N/A   Clear
3:44 AM -0.4 °F -10.4 °F -5.8 °F 78% 30.12 in 10.0 mi WNW 4.6 mph - N/A   Clear
4:03 AM -2.2 °F -15.6 °F -5.8 °F 85% 30.12 in 10.0 mi West 6.9 mph - N/A   Clear
4:24 AM -2.2 °F -15.6 °F -5.8 °F 85% 30.12 in 10.0 mi West 6.9 mph - N/A   Clear
4:44 AM -4.0 °F -17.8 °F -7.6 °F 85% 30.13 in 10.0 mi West 6.9 mph - N/A   Clear
5:03 AM -4.0 °F -19.0 °F -7.6 °F 85% 30.13 in 10.0 mi WNW 8.1 mph - N/A   Clear
5:24 AM -4.0 °F -17.8 °F -7.6 °F 85% 30.13 in 10.0 mi WNW 6.9 mph - N/A   Clear
5:44 AM -4.0 °F -16.3 °F -7.6 °F 85% 30.13 in 10.0 mi West 5.8 mph - N/A   Clear
6:03 AM -2.2 °F - -7.6 °F 78% 30.11 in 10.0 mi Calm Calm - N/A   Clear
6:24 AM -4.0 °F -12.4 °F -7.6 °F 85% 30.12 in 10.0 mi WSW 3.5 mph - N/A   Clear
6:44 AM -4.0 °F -12.4 °F -7.6 °F 85% 30.11 in 10.0 mi WSW 3.5 mph - N/A   Clear
7:03 AM -5.8 °F -16.7 °F -7.6 °F 92% 30.12 in 10.0 mi West 4.6 mph - N/A   Clear
7:24 AM -4.0 °F -19.0 °F -7.6 °F 85% 30.12 in 10.0 mi West 8.1 mph - N/A   Scattered Clouds
7:44 AM -2.2 °F -14.2 °F -5.8 °F 85% 30.12 in 10.0 mi West 5.8 mph - N/A   Overcast
8:04 AM -0.4 °F -8.3 °F -4.0 °F 85% 30.11 in 5.0 mi West 3.5 mph - N/A   Overcast
8:24 AM 1.4 °F - -2.2 °F 85% 30.10 in 5.0 mi Calm Calm - N/A   Overcast
8:44 AM -0.4 °F - -2.2 °F 92% 30.10 in 3.0 mi Calm Calm - N/A Snow Light Snow
9:04 AM 1.4 °F -6.2 °F -2.2 °F 85% 30.09 in 3.0 mi South 3.5 mph - N/A Snow Light Snow
9:24 AM 1.4 °F - -2.2 °F 85% 30.10 in 4.0 mi Calm Calm - N/A   Overcast
9:43 AM 3.2 °F - -0.4 °F 85% 30.08 in 5.0 mi Calm Calm - N/A   Overcast
10:04 AM 5.0 °F -2.1 °F -0.4 °F 78% 30.07 in 5.0 mi SSW 3.5 mph - N/A   Haze
10:24 AM 6.8 °F -2.0 °F -0.4 °F 72% 30.06 in 7.0 mi SW 4.6 mph - N/A   Overcast
10:43 AM 6.8 °F -2.0 °F -0.4 °F 72% 30.05 in 10.0 mi SW 4.6 mph - N/A   Overcast
11:04 AM 6.8 °F -5.9 °F -0.4 °F 72% 30.04 in 10.0 mi WSW 8.1 mph 16.1 mph N/A   Overcast
11:24 AM 6.8 °F -5.9 °F 1.4 °F 79% 30.01 in 7.0 mi WSW 8.1 mph - N/A   Overcast
11:44 AM 8.6 °F -1.3 °F 1.4 °F 73% 29.99 in 10.0 mi SSW 5.8 mph - N/A   Scattered Clouds
12:04 PM 8.6 °F -5.5 °F 1.4 °F 73% 29.96 in 10.0 mi SSW 10.4 mph - N/A   Clear
12:23 PM 8.6 °F -1.3 °F 1.4 °F 73% 29.95 in 10.0 mi SSW 5.8 mph - N/A   Clear
12:44 PM 10.4 °F -0.4 °F 1.4 °F 67% 29.93 in 10.0 mi SW 6.9 mph - N/A   Clear
1:04 PM 10.4 °F -2.4 °F 3.2 °F 73% 29.90 in 10.0 mi SSW 9.2 mph 16.1 mph N/A   Clear
1:23 PM 12.2 °F -0.2 °F 3.2 °F 67% 29.89 in 10.0 mi SSW 9.2 mph - N/A   Scattered Clouds
1:44 PM 10.4 °F -5.4 °F 3.2 °F 73% 29.88 in 10.0 mi South 13.8 mph - N/A   Mostly Cloudy
2:04 PM 10.4 °F -2.4 °F 3.2 °F 73% 29.87 in 10.0 mi South 9.2 mph - N/A   Mostly Cloudy
2:23 PM 10.4 °F -4.1 °F 5.0 °F 79% 29.84 in 10.0 mi South 11.5 mph - N/A   Scattered Clouds
2:44 PM 12.2 °F -0.2 °F 5.0 °F 73% 29.85 in 10.0 mi SSW 9.2 mph - N/A   Scattered Clouds
3:04 PM 12.2 °F -0.2 °F 6.8 °F 79% 29.84 in 10.0 mi South 9.2 mph 16.1 mph N/A   Clear
3:23 PM 12.2 °F -1.8 °F 6.8 °F 79% 29.82 in 10.0 mi South 11.5 mph 17.3 mph N/A   Scattered Clouds
3:44 PM 12.2 °F -1.0 °F 6.8 °F 79% 29.80 in 10.0 mi South 10.4 mph 16.1 mph N/A   Mostly Cloudy
4:04 PM 12.2 °F -1.0 °F 6.8 °F 79% 29.79 in 10.0 mi South 10.4 mph - N/A   Overcast
4:24 PM 12.2 °F 0.7 °F 8.6 °F 85% 29.76 in 10.0 mi South 8.1 mph 17.3 mph N/A   Overcast
4:44 PM 14.0 °F -0.2 °F 8.6 °F 79% 29.72 in 1.8 mi South 12.7 mph 19.6 mph N/A Snow Light Snow
5:03 PM 14.0 °F -0.8 °F 10.4 °F 86% 29.69 in 3.0 mi South 13.8 mph 19.6 mph N/A Snow Light Snow
5:24 PM 14.0 °F 1.2 °F 10.4 °F 86% 29.70 in 3.0 mi South 10.4 mph - N/A Snow Light Snow
5:44 PM 15.8 °F 2.1 °F 12.2 °F 86% 29.66 in 4.0 mi South 12.7 mph - N/A Snow Light Snow
6:03 PM 15.8 °F 0.9 °F 12.2 °F 86% 29.64 in 2.5 mi South 15.0 mph 21.9 mph N/A Snow Light Snow
6:24 PM 17.6 °F 3.7 °F 14.0 °F 86% 29.66 in 2.5 mi SSW 13.8 mph 18.4 mph N/A Snow Light Snow
6:44 PM 17.6 °F 1.7 °F 14.0 °F 86% 29.61 in 4.0 mi South 18.4 mph 25.3 mph N/A Snow Light Snow
7:04 PM 17.6 °F 3.2 °F 14.0 °F 86% 29.56 in 7.0 mi South 15.0 mph 21.9 mph N/A   Mostly Cloudy
7:24 PM 17.6 °F 4.3 °F 15.8 °F 93% 29.56 in 5.0 mi SSW 12.7 mph 26.5 mph N/A   Scattered Clouds
7:44 PM 19.4 °F 7.2 °F 15.8 °F 86% 29.56 in 7.0 mi SSW 11.5 mph 24.2 mph N/A   Scattered Clouds
8:04 PM 19.4 °F 7.2 °F 15.8 °F 86% 29.55 in 7.0 mi SW 11.5 mph 23.0 mph N/A   Clear
8:24 PM 19.4 °F 5.5 °F 15.8 °F 86% 29.51 in 7.0 mi SSW 15.0 mph 24.2 mph N/A   Clear
8:43 PM 19.4 °F 8.6 °F 15.8 °F 86% 29.51 in 5.0 mi SSW 9.2 mph 24.2 mph N/A   Haze
9:04 PM 21.2 °F 11.7 °F 15.8 °F 80% 29.49 in 10.0 mi SW 8.1 mph 19.6 mph N/A   Scattered Clouds
9:24 PM 21.2 °F 11.7 °F 15.8 °F 80% 29.47 in 10.0 mi SW 8.1 mph 20.7 mph N/A   Mostly Cloudy
9:44 PM 23.0 °F 11.7 °F 15.8 °F 74% 29.46 in 10.0 mi SW 11.5 mph 18.4 mph N/A   Mostly Cloudy
10:04 PM 23.0 °F 14.7 °F 15.8 °F 74% 29.44 in 10.0 mi SW 6.9 mph - N/A   Clear
10:24 PM 23.0 °F 13.1 °F 15.8 °F 74% 29.44 in 10.0 mi SW 9.2 mph 17.3 mph N/A   Clear
10:44 PM 23.0 °F 12.4 °F 17.6 °F 80% 29.43 in 10.0 mi SW 10.4 mph 16.1 mph N/A   Clear
11:04 PM 24.8 °F 14.0 °F 17.6 °F 74% 29.42 in 10.0 mi SW 11.5 mph 17.3 mph N/A   Clear
11:24 PM 24.8 °F 14.6 °F 19.4 °F 80% 29.41 in 10.0 mi SW 10.4 mph 17.3 mph N/A   Clear
11:44 PM 26.6 °F 17.5 °F 19.4 °F 74% 29.41 in 10.0 mi SW 9.2 mph 16.1 mph N/A   Clear